CST,Max TemperatureF,Mean TemperatureF,Min TemperatureF,Max Dew PointF,MeanDew PointF,Min DewpointF,Max Humidity, Mean Humidity, Min Humidity, Max Sea Level PressureIn, Mean Sea Level PressureIn, Min Sea Level PressureIn, Max VisibilityMiles, Mean VisibilityMiles, Min VisibilityMiles, Max Wind SpeedMPH, Mean Wind SpeedMPH, Max Gust SpeedMPH,PrecipitationIn, CloudCover, Events, WindDirDegrees
2013-1-1,53,46,38,52,46,36,100,96,92,30.19,30.06,30.01,10,6,2,16,6,23,1.17,8,Rain,357
2013-1-2,38,35,32,35,31,27,92,84,75,30.30,30.24,30.18,10,7,4,10,5,16,0.00,5,,346
2013-1-3,47,38,28,32,27,22,92,65,37,30.45,30.38,30.29,10,10,8,12,3,16,0.00,0,,359
2013-1-4,50,37,24,34,29,21,100,71,42,30.52,30.45,30.41,10,9,2,9,1,13,0.00,1,,329
2013-1-5,45,38,30,41,37,29,96,86,76,30.44,30.35,30.30,10,10,2,9,3,10,0.11,7,Rain,167
2013-1-6,51,41,30,41,37,29,100,83,66,30.38,30.32,30.28,10,5,0,12,2,12,0.00,4,Fog,302
2013-1-7,55,41,26,33,30,24,92,65,38,30.41,30.32,30.22,10,9,6,12,2,14,0.00,0,,19
2013-1-8,62,48,34,51,40,31,82,64,46,30.28,30.20,30.14,10,10,10,17,5,22,T,2,Rain,113
2013-1-9,60,57,54,59,55,52,100,95,90,30.29,30.24,30.19,10,7,2,17,8,23,0.41,8,Rain,88
2013-1-10,68,64,60,63,61,59,100,94,87,30.23,30.10,29.95,10,5,2,16,9,,1.07,7,Rain,153
2013-1-11,73,63,53,66,58,52,97,73,49,30.08,30.02,29.97,10,10,4,16,8,18,0.03,4,Rain,191
2013-1-12,75,71,66,68,66,64,100,87,73,30.00,29.93,29.78,10,6,0,28,14,33,2.63,6,Fog-Rain,181
2013-1-13,71,55,39,65,48,35,100,90,79,30.21,29.98,29.79,10,7,1,22,12,29,0.98,8,Rain,344
2013-1-14,40,36,31,34,30,28,96,88,79,30.31,30.25,30.21,10,8,2,20,11,29,0.38,8,Rain,16
2013-1-15,34,33,32,33,32,30,100,95,89,30.20,30.12,30.07,10,6,1,16,8,18,0.59,8,Rain,7
2013-1-16,35,34,32,33,32,30,100,95,89,30.19,30.14,30.09,8,4,2,12,6,24,0.23,8,Rain-Snow,347
2013-1-17,50,41,32,36,32,28,100,78,56,30.48,30.27,30.14,10,7,1,16,5,22,0.10,5,Rain-Snow,345
2013-1-18,56,41,25,34,29,25,100,69,38,30.59,30.51,30.39,10,6,0,8,1,23,0.00,0,Fog,76
2013-1-19,58,45,31,38,34,29,100,72,43,30.39,30.31,30.25,10,10,10,16,4,21,0.00,0,,200
2013-1-20,63,46,29,44,37,29,100,73,46,30.27,30.21,30.16,10,10,7,8,2,10,0.00,0,,328
2013-1-21,52,41,29,34,28,23,100,68,35,30.32,30.25,30.17,10,10,6,17,6,22,0.00,0,,7
2013-1-22,50,38,26,29,24,19,85,58,31,30.43,30.36,30.32,10,10,10,10,3,13,0.00,4,,38
2013-1-23,64,53,41,46,39,28,92,74,55,30.37,30.28,30.21,10,10,10,13,5,18,T,5,,179
2013-1-24,60,55,49,52,42,34,96,71,46,30.34,30.26,30.19,10,10,9,15,7,17,0.00,7,,83
2013-1-25,62,53,43,59,49,42,100,80,59,30.24,30.16,30.11,10,6,2,21,9,26,0.09,7,Rain,278
2013-1-26,52,46,39,42,39,36,100,78,56,30.32,30.27,30.23,10,9,5,14,6,17,T,7,,76
2013-1-27,71,61,50,56,47,37,77,65,53,30.27,30.21,30.16,10,10,10,18,9,23,T,4,,151
2013-1-28,70,65,59,60,57,52,90,80,70,30.23,30.16,30.09,10,10,8,20,12,24,T,7,,170
2013-1-29,79,71,62,64,62,59,93,74,54,30.08,29.87,29.60,10,9,7,39,17,49,T,4,,172
2013-1-30,75,57,39,64,45,28,93,73,53,30.10,29.77,29.60,10,8,1,36,11,44,0.85,7,Rain,265
2013-1-31,56,43,30,34,31,29,96,67,38,30.24,30.18,30.11,10,10,10,18,7,25,0.00,0,,226